Regional Weather Roundup
Issued by NWS Goodland, KS

Home | Current Version | Previous Version | Text Only | Print | Product List | Glossary On
Versions: 1 2 3 4 5 6 7 8 9 10 11 12 13 14 15 16 17 18 19 20 21 22 23 24 25 26 27 28 29 30 31 32 33 34 35 36 37 38 39 40 41 42 43 44 45 46 47 48 49 50
000
ASUS43 KGLD 211508
RWRGLD

GOODLAND FORECAST AREA HOURLY WEATHER ROUNDUP
NATIONAL WEATHER SERVICE GOODLAND KS
900 AM MDT MON APR 21 2014

...OFFICIAL OBSERVATIONS...

CITY           SKY/WX    TMP DP  RH WIND       PRES   REMARKS
GOODLAND KS    SUNNY     56  29  35 NE22G29   30.22R
HILL CITY KS   SUNNY     59  42  53 NE18G25   30.15R
IMPERIAL NEB   SUNNY     58  24  27 NE22      30.21R
MCCOOK NEB     SUNNY     61  29  29 NE25G31   30.17R
AKRON CO       SUNNY     51  25  36 CALM      30.29R
BURLINGTON CO  SUNNY     55  26  32 N21G28    30.25R
LIMON CO       SUNNY     51  26  37 N15       30.30S
$$

...UNOFFICIAL OBSERVATIONS...

CITY           SKY/WX    TMP DP  RH WIND       PRES   REMARKS
COLBY KS       SUNNY     61  36  39 N21G26    30.20R
LENORA KS        N/A     59  32  36 N18         N/A
LEOTI KS         N/A     57  32  38 N16         N/A
NORTON KS      SUNNY     55  36  47 N18G28    30.14R
OBERLIN KS     FAIR      59  30  33 NE20G26   30.17R
SHARON SPRINGS   N/A     58  34  40 NE16G26     N/A
ST FRANCIS KS  SUNNY     57  23  26 N15       30.23R
WAKEENEY KS      N/A     57  51  81 MISG        N/A
KIT CARSON CO    N/A     55  29  36 MISG        N/A
WRAY CO        FAIR      57  27  30 N10G31    30.26R
$$



USA.gov is the U.S. government's official web portal to all federal, state and local government web resources and services.